CREW DRAGON 4 DEB (54047 NORAD) Tracking and Keplerian Element Data

This shows tracking and keplerian element data for the satellite.

Feedback or suggestion? Click here.




ElementValue
Catalog54047
NameCREW DRAGON 4 DEB
Epoch Orbit2545
Epoch Day85.1745814
Epoch Year2023
RAAN354.1485
Inclination51.3145
Eccentricity0.0007502
Argument of Perigee197.257
Mean Anonmoly162.8182
Mean Motion15.99068626
Decay Rate0.00742315
L11 54047U 22042B 23085.17458140 .00742315 25963-3 14912-2 0 9997
L22 54047 51.3145 354.1485 0007502 197.2570 162.8182 15.99068626 25452



Live tracking and technical data element details for CREW DRAGON 4 DEB (NORAD 54047). CREW DRAGON 4 DEB can be tracked NOW for your location showing map with azimuth and elevation plus other details from your city location.







IsCatalogInMostPopularTable: catalog: 54047, numindb: 25
Update: records affected: 1



GetName: 54047 CREW DRAGON 4 DEB

Hit Count: updated at: Sun, 14 Apr 2024 23:03:40 GMT